Weather History for Bolton Field, OH

Change the Weather History Date:

Thursday, April 11, 2013

  Actual Average Record
Temperature  
Mean Temperature 58 °F -  
Max Temperature 64 °F 61 °F 80 °F (2001)
Min Temperature 53 °F 42 °F 28 °F (2012)
Degree Days  
Heating Degree Days 6    
Growing Degree Days 8 (Base 50)    
Moisture  
Dew Point 58 °F    
Average Humidity 93    
Maximum Humidity 100    
Minimum Humidity 82    
Precipitation  
Precipitation 0.40 in - - ()
Sea Level Pressure  
Sea Level Pressure 29.74 in    
Wind  
Wind Speed 6 mph (East)    
Max Wind Speed 17 mph    
Max Gust Speed 24 mph    
Visibility 6 miles    
Events Rain , Thunderstorm    
Averages and records for this station are not official NWS values.
T = Trace of Precipitation, MM = Missing Value Source: NWS Daily Summary

Daily Weather History Graph

Daily Weather History Graph

Search for Another Location

Airport:

Trip Planner

Search our weather history database for the weather conditions in past years. The results will help you decide how hot, cold, wet, or windy it might be!

Date:

Astronomy

Apr. 11, 2013 Rise Set
Actual Time 7:00 AM EDT 8:07 PM EDT
Civil Twilight 6:32 AM EDT 8:34 PM EDT
Nautical Twilight 5:59 AM EDT 9:08 PM EDT
Astronomical Twilight 5:25 AM EDT 9:42 PM EDT
Moon 7:31 AM EDT (4/11) 9:40 PM EDT (4/11)
Length of Visible Light 14h 02m
Length of Day
13h 06m
New Moon, 2% of the Moon is Illuminated
Apr 11
New Moon
Apr 18
First Quarter
Apr 25
Full
May 2
Last Quarter
May 9
New

Hourly Weather History & Observations

Time (EDT) Temp. Dew Point Humidity Pressure Visibility Wind Dir Wind Speed Gust Speed Precip Events Conditions
12:15 AM 60.8 °F 57.0 °F 87% 29.88 in - NNE 3.5 mph - N/A   Unknown
12:35 AM 59.9 °F 57.2 °F 91% 29.89 in - North 8.1 mph - N/A   Unknown
12:55 AM 59.7 °F 57.7 °F 93% 29.88 in - ENE 4.6 mph - N/A   Unknown
1:15 AM 59.4 °F 57.6 °F 94% 29.85 in - ENE 5.8 mph - N/A   Unknown
1:35 AM 59.4 °F 57.4 °F 93% 29.85 in - East 4.6 mph - N/A   Unknown
1:55 AM 59.4 °F 57.4 °F 93% 29.84 in - East 4.6 mph - N/A   Unknown
2:15 AM 59.0 °F 57.2 °F 94% 29.84 in - SE 5.8 mph - N/A   Unknown
2:35 AM 59.0 °F 56.8 °F 93% 29.82 in - ESE 6.9 mph - N/A   Mostly Cloudy
2:55 AM 59.0 °F 56.7 °F 92% 29.82 in - ESE 5.8 mph - N/A   Unknown
3:15 AM 58.1 °F 56.3 °F 94% 29.81 in - SE 6.9 mph - N/A   Unknown
3:35 AM 58.6 °F 56.3 °F 92% 29.81 in - SE 8.1 mph - N/A   Mostly Cloudy
3:55 AM 57.9 °F 55.8 °F 92% 29.80 in - SE 8.1 mph - N/A   Unknown
4:15 AM 58.6 °F 55.6 °F 90% 29.80 in - SE 8.1 mph - N/A   Unknown
4:35 AM 59.0 °F 55.6 °F 88% 29.80 in - SSE 8.1 mph - N/A   Unknown
4:55 AM 61.0 °F 55.4 °F 82% 29.80 in - SSW 11.5 mph 16.1 mph N/A   Scattered Clouds
5:15 AM 59.9 °F 55.2 °F 84% 29.79 in - SE 6.9 mph - N/A   Scattered Clouds
5:35 AM 58.8 °F 54.7 °F 86% 29.79 in - SSE 5.8 mph - N/A   Unknown
5:55 AM 59.0 °F 54.5 °F 85% 29.79 in - SSE 4.6 mph - N/A   Unknown
6:15 AM 58.3 °F 54.5 °F 87% 29.79 in - SSE 5.8 mph - N/A   Unknown
6:35 AM 58.8 °F 54.7 °F 86% 29.79 in - SSW 3.5 mph - N/A   Mostly Cloudy
6:55 AM 58.3 °F 54.5 °F 87% 29.80 in - Calm Calm - N/A   Unknown
7:15 AM 60.3 °F 54.7 °F 82% 29.82 in - NW 8.1 mph - N/A   Scattered Clouds
7:50 AM 59.0 °F 55.4 °F 88% 29.83 in 10.0 mi Calm Calm - N/A   Mostly Cloudy
8:50 AM 59.0 °F 55.4 °F 88% 29.84 in 8.0 mi North 9.2 mph - N/A   Overcast
9:20 AM 55.4 °F 53.6 °F 94% 29.87 in 4.0 mi WNW 6.9 mph - N/A Rain , Thunderstorm Light Thunderstorms and Rain
9:45 AM 53.6 °F 53.6 °F 100% 29.86 in 2.0 mi Calm Calm - N/A Rain Light Rain
10:50 AM 55.4 °F 55.4 °F 100% 29.81 in 2.5 mi East 9.2 mph - N/A   Overcast
11:50 AM 57.2 °F 55.4 °F 94% 29.79 in 4.0 mi SE 17.3 mph - N/A Rain Light Rain
12:55 PM 62.6 °F 60.8 °F 94% 29.73 in 7.0 mi SE 16.1 mph 24.2 mph N/A   Overcast
2:55 PM 64.4 °F 60.8 °F 88% 29.74 in 7.0 mi SE 4.6 mph - N/A   Overcast
3:50 PM 64.4 °F 60.8 °F 88% 29.71 in 10.0 mi Calm Calm - N/A   Overcast
4:15 PM 64.4 °F 60.8 °F 88% 29.70 in 5.0 mi Calm Calm - N/A Rain Light Rain
4:50 PM 64.4 °F 62.6 °F 94% 29.69 in 6.0 mi Calm Calm - N/A Rain Light Rain
5:47 PM 62.6 °F 62.6 °F 100% 29.65 in 7.0 mi North 4.6 mph - N/A   Overcast
6:47 PM 62.6 °F 62.6 °F 100% 29.63 in 7.0 mi North 3.5 mph - N/A   Overcast
7:35 PM 62.6 °F 62.2 °F 99% 29.60 in - North 3.5 mph - 0.01 in   Unknown
7:55 PM 61.9 °F 61.9 °F 100% 29.61 in - Calm Calm - 0.01 in   Overcast
8:15 PM 61.7 °F 61.7 °F 100% 29.59 in - North 4.6 mph - N/A   Overcast
8:35 PM 61.7 °F 61.7 °F 100% 29.60 in - NNW 4.6 mph - N/A   Unknown
8:55 PM 61.7 °F 61.7 °F 100% 29.63 in - WSW 9.2 mph - 0.02 in   Unknown
9:15 PM 61.7 °F 61.7 °F 100% 29.63 in - West 6.9 mph - 0.15 in   Unknown
9:35 PM 61.3 °F 61.3 °F 100% 29.63 in - WNW 9.2 mph - 0.20 in   Unknown
9:55 PM 60.1 °F 60.1 °F 100% 29.63 in - WNW 5.8 mph - 0.26 in   Overcast
10:15 PM 59.5 °F 59.4 °F 99% 29.63 in - West 5.8 mph - 0.03 in   Overcast
10:35 PM 58.3 °F 58.3 °F 100% 29.61 in - North 3.5 mph - 0.05 in   Overcast
10:55 PM 58.1 °F 58.1 °F 100% 29.59 in - East 6.9 mph - 0.08 in   Unknown
11:15 PM 58.3 °F 58.3 °F 100% 29.58 in - East 4.6 mph - 0.02 in   Overcast
11:35 PM 58.3 °F 58.3 °F 100% 29.56 in - East 4.6 mph - 0.03 in   Unknown
11:55 PM 58.3 °F 58.3 °F 100% 29.57 in - South 4.6 mph - 0.03 in   Overcast